Time,TemperatureF,DewpointF,PressureIn,WindDirection,WindDirectionDegrees,WindSpeedMPH,WindSpeedGustMPH,Humidity,HourlyPrecipIn,Conditions,Clouds,dailyrainin,SoftwareType,DateUTC
2013-04-21 00:02:00,17.0,11.0,-100.00,NW,310,0.0,0.0,77,0.00,,,-99.99,,2013-04-21 05:02:00,
2013-04-21 00:12:00,17.0,11.0,-100.00,NW,310,0.0,0.0,77,0.00,,,-99.99,,2013-04-21 05:12:00,
2013-04-21 00:22:00,17.0,11.0,-100.00,NW,310,0.0,0.0,77,0.00,,,-99.99,,2013-04-21 05:22:00,
2013-04-21 00:42:00,17.0,11.0,-100.00,NW,310,0.0,0.0,78,0.00,,,-99.99,,2013-04-21 05:42:00,
2013-04-21 00:52:00,17.0,11.0,-100.00,WNW,285,1.0,1.0,78,0.00,,,-99.99,,2013-04-21 05:52:00,
2013-04-21 01:01:00,17.0,11.0,-100.00,WNW,285,1.0,1.0,78,0.00,,,-99.99,,2013-04-21 06:01:00,
2013-04-21 01:12:00,17.0,11.0,-100.00,WNW,285,1.0,1.0,78,0.00,,,-99.99,,2013-04-21 06:12:00,
2013-04-21 01:22:00,17.0,11.0,-100.00,WNW,285,1.0,1.0,78,0.00,,,-99.99,,2013-04-21 06:22:00,
2013-04-21 01:42:00,17.0,11.0,-100.00,NW,310,0.0,0.0,78,0.00,,,-99.99,,2013-04-21 06:42:00,
2013-04-21 01:52:00,17.0,11.0,-100.00,NW,310,0.0,0.0,78,0.00,,,-99.99,,2013-04-21 06:52:00,
2013-04-21 02:01:00,17.0,11.0,-100.00,NW,310,0.0,0.0,78,0.00,,,-99.99,,2013-04-21 07:01:00,
2013-04-21 02:12:00,17.0,11.0,-100.00,NW,310,0.0,0.0,78,0.00,,,-99.99,,2013-04-21 07:12:00,
2013-04-21 02:21:00,17.0,11.0,-100.00,NW,310,0.0,0.0,78,0.00,,,-99.99,,2013-04-21 07:21:00,
2013-04-21 02:42:00,16.0,10.0,-100.00,WNW,285,0.0,1.0,79,0.00,,,-99.99,,2013-04-21 07:42:00,
2013-04-21 02:52:00,16.0,10.0,-100.00,WNW,285,0.0,1.0,79,0.00,,,-99.99,,2013-04-21 07:52:00,
2013-04-21 03:01:00,16.0,10.0,-100.00,WNW,285,0.0,1.0,79,0.00,,,-99.99,,2013-04-21 08:01:00,
2013-04-21 03:12:00,16.0,10.0,-100.00,WNW,285,0.0,1.0,79,0.00,,,-99.99,,2013-04-21 08:12:00,
2013-04-21 03:21:00,16.0,10.0,-100.00,WNW,285,0.0,1.0,79,0.00,,,-99.99,,2013-04-21 08:21:00,
2013-04-21 03:52:00,14.0,9.0,-100.00,WNW,295,0.0,0.0,81,0.00,,,-99.99,,2013-04-21 08:52:00,
2013-04-21 04:02:00,14.0,9.0,-100.00,WNW,295,0.0,0.0,81,0.00,,,-99.99,,2013-04-21 09:02:00,
2013-04-21 04:12:00,14.0,9.0,-100.00,WNW,295,0.0,0.0,81,0.00,,,-99.99,,2013-04-21 09:12:00,
2013-04-21 04:21:00,14.0,9.0,-100.00,WNW,295,0.0,0.0,81,0.00,,,-99.99,,2013-04-21 09:21:00,
2013-04-21 04:43:00,13.0,8.0,-100.00,East,90,1.0,2.0,82,0.00,,,-99.99,,2013-04-21 09:43:00,
2013-04-21 04:53:00,13.0,8.0,-100.00,East,90,1.0,2.0,82,0.00,,,-99.99,,2013-04-21 09:53:00,
2013-04-21 05:03:00,13.0,8.0,-100.00,East,90,1.0,2.0,82,0.00,,,-99.99,,2013-04-21 10:03:00,
2013-04-21 05:12:00,13.0,8.0,-100.00,East,90,1.0,2.0,82,0.00,,,-99.99,,2013-04-21 10:12:00,
2013-04-21 05:22:00,13.0,8.0,-100.00,East,90,1.0,2.0,82,0.00,,,-99.99,,2013-04-21 10:22:00,
2013-04-21 05:52:00,13.0,8.0,-100.00,WSW,255,0.0,1.0,82,0.00,,,-99.99,,2013-04-21 10:52:00,
2013-04-21 06:02:00,13.0,8.0,-100.00,WSW,255,0.0,1.0,82,0.00,,,-99.99,,2013-04-21 11:02:00,
2013-04-21 06:12:00,13.0,8.0,-100.00,WSW,255,0.0,1.0,82,0.00,,,-99.99,,2013-04-21 11:12:00,
2013-04-21 06:22:00,13.0,8.0,-100.00,WSW,255,0.0,1.0,82,0.00,,,-99.99,,2013-04-21 11:22:00,
2013-04-21 06:42:00,15.0,10.0,-100.00,SSW,205,0.0,0.0,81,0.00,,,-99.99,,2013-04-21 11:42:00,
2013-04-21 06:52:00,15.0,10.0,-100.00,SSW,205,0.0,0.0,81,0.00,,,-99.99,,2013-04-21 11:52:00,
2013-04-21 07:02:00,15.0,10.0,-100.00,SSW,205,0.0,0.0,81,0.00,,,-99.99,,2013-04-21 12:02:00,
2013-04-21 07:12:00,15.0,10.0,-100.00,SSW,205,0.0,0.0,81,0.00,,,-99.99,,2013-04-21 12:12:00,
2013-04-21 07:22:00,15.0,10.0,-100.00,SSW,205,0.0,0.0,81,0.00,,,-99.99,,2013-04-21 12:22:00,
2013-04-21 07:52:00,21.0,14.0,-100.00,East,80,2.0,3.0,75,0.00,,,-99.99,,2013-04-21 12:52:00,
2013-04-21 08:01:00,21.0,14.0,-100.00,East,80,2.0,3.0,75,0.00,,,-99.99,,2013-04-21 13:01:00,
2013-04-21 08:12:00,21.0,14.0,-100.00,East,80,2.0,3.0,75,0.00,,,-99.99,,2013-04-21 13:12:00,
2013-04-21 08:21:00,21.0,14.0,-100.00,East,80,2.0,3.0,75,0.00,,,-99.99,,2013-04-21 13:21:00,
2013-04-21 08:42:00,28.0,11.0,-100.00,East,95,2.0,4.0,48,0.00,,,-99.99,,2013-04-21 13:42:00,
2013-04-21 08:52:00,28.0,11.0,-100.00,East,95,2.0,4.0,48,0.00,,,-99.99,,2013-04-21 13:52:00,
2013-04-21 09:02:00,28.0,11.0,-100.00,East,95,2.0,4.0,48,0.00,,,-99.99,,2013-04-21 14:02:00,
2013-04-21 09:11:00,28.0,11.0,-100.00,East,95,2.0,4.0,48,0.00,,,-99.99,,2013-04-21 14:11:00,
2013-04-21 09:21:00,28.0,11.0,-100.00,East,95,2.0,4.0,48,0.00,,,-99.99,,2013-04-21 14:21:00,
2013-04-21 09:52:00,33.0,22.0,-100.00,South,170,6.0,11.0,62,0.00,,,-99.99,,2013-04-21 14:52:00,
2013-04-21 10:02:00,33.0,22.0,-100.00,South,170,6.0,11.0,62,0.00,,,-99.99,,2013-04-21 15:02:00,
2013-04-21 10:11:00,33.0,22.0,-100.00,South,170,6.0,11.0,62,0.00,,,-99.99,,2013-04-21 15:11:00,
2013-04-21 10:22:00,33.0,22.0,-100.00,South,170,6.0,11.0,62,0.00,,,-99.99,,2013-04-21 15:22:00,
2013-04-21 10:40:00,36.0,25.0,-100.00,SSE,165,12.0,21.0,64,0.00,,,-99.99,,2013-04-21 15:40:00,
2013-04-21 10:53:00,36.0,25.0,-100.00,SSE,165,8.0,14.0,65,0.00,,,-99.99,,2013-04-21 15:53:00,
2013-04-21 11:03:00,36.0,25.0,-100.00,SSE,165,8.0,14.0,65,0.00,,,-99.99,,2013-04-21 16:03:00,
2013-04-21 11:12:00,36.0,25.0,-100.00,SSE,165,8.0,14.0,65,0.00,,,-99.99,,2013-04-21 16:12:00,
2013-04-21 11:23:00,36.0,25.0,-100.00,SSE,165,8.0,14.0,65,0.00,,,-99.99,,2013-04-21 16:23:00,
2013-04-21 11:53:00,38.0,25.0,-100.00,South,170,11.0,21.0,59,0.00,,,-99.99,,2013-04-21 16:53:00,
2013-04-21 12:02:00,38.0,25.0,-100.00,South,170,11.0,21.0,59,0.00,,,-99.99,,2013-04-21 17:02:00,
2013-04-21 12:12:00,38.0,25.0,-100.00,South,170,11.0,21.0,59,0.00,,,-99.99,,2013-04-21 17:12:00,
2013-04-21 12:23:00,38.0,25.0,-100.00,South,170,11.0,21.0,59,0.00,,,-99.99,,2013-04-21 17:23:00,
2013-04-21 12:52:00,37.0,26.0,-100.00,SSE,165,11.0,22.0,63,0.00,,,-99.99,,2013-04-21 17:52:00,
2013-04-21 13:02:00,37.0,26.0,-100.00,SSE,165,11.0,22.0,63,0.00,,,-99.99,,2013-04-21 18:02:00,
2013-04-21 13:11:00,37.0,26.0,-100.00,SSE,165,11.0,22.0,63,0.00,,,-99.99,,2013-04-21 18:11:00,
2013-04-21 13:22:00,37.0,26.0,-100.00,SSE,165,11.0,22.0,63,0.00,,,-99.99,,2013-04-21 18:22:00,
2013-04-21 13:42:00,37.0,26.0,-100.00,South,170,9.0,23.0,64,0.00,,,-99.99,,2013-04-21 18:42:00,
2013-04-21 13:52:00,37.0,26.0,-100.00,South,170,9.0,23.0,64,0.00,,,-99.99,,2013-04-21 18:52:00,
2013-04-21 14:02:00,37.0,26.0,-100.00,South,170,9.0,23.0,64,0.00,,,-99.99,,2013-04-21 19:02:00,
2013-04-21 14:12:00,37.0,26.0,-100.00,South,170,9.0,23.0,64,0.00,,,-99.99,,2013-04-21 19:12:00,
2013-04-21 14:21:00,37.0,26.0,-100.00,South,170,9.0,23.0,64,0.00,,,-99.99,,2013-04-21 19:21:00,
2013-04-21 14:52:00,38.0,26.0,-100.00,SSE,155,9.0,21.0,61,0.00,,,-99.99,,2013-04-21 19:52:00,
2013-04-21 15:02:00,38.0,26.0,-100.00,SSE,155,9.0,21.0,61,0.00,,,-99.99,,2013-04-21 20:02:00,
2013-04-21 15:11:00,38.0,26.0,-100.00,SSE,155,9.0,21.0,61,0.00,,,-99.99,,2013-04-21 20:11:00,
2013-04-21 15:22:00,38.0,26.0,-100.00,SSE,155,9.0,21.0,61,0.00,,,-99.99,,2013-04-21 20:22:00,
2013-04-21 15:52:00,38.0,25.0,-100.00,SSE,160,14.0,23.0,59,0.00,,,-99.99,,2013-04-21 20:52:00,
2013-04-21 16:02:00,38.0,25.0,-100.00,SSE,160,14.0,23.0,59,0.00,,,-99.99,,2013-04-21 21:02:00,
2013-04-21 16:12:00,38.0,25.0,-100.00,SSE,160,14.0,23.0,59,0.00,,,-99.99,,2013-04-21 21:12:00,
2013-04-21 16:21:00,38.0,25.0,-100.00,SSE,160,14.0,23.0,59,0.00,,,-99.99,,2013-04-21 21:21:00,
2013-04-21 16:43:00,38.0,25.0,-100.00,South,175,10.0,22.0,59,0.00,,,-99.99,,2013-04-21 21:43:00,
2013-04-21 16:53:00,38.0,25.0,-100.00,South,175,10.0,22.0,59,0.00,,,-99.99,,2013-04-21 21:53:00,
2013-04-21 17:02:00,38.0,25.0,-100.00,South,175,10.0,22.0,59,0.00,,,-99.99,,2013-04-21 22:02:00,
2013-04-21 17:12:00,38.0,25.0,-100.00,South,175,10.0,22.0,59,0.00,,,-99.99,,2013-04-21 22:12:00,
2013-04-21 17:22:00,38.0,25.0,-100.00,South,175,10.0,22.0,59,0.00,,,-99.99,,2013-04-21 22:22:00,
2013-04-21 17:53:00,38.0,25.0,-100.00,SSE,160,9.0,17.0,59,0.00,,,-99.99,,2013-04-21 22:53:00,
2013-04-21 18:02:00,38.0,25.0,-100.00,SSE,160,9.0,17.0,59,0.00,,,-99.99,,2013-04-21 23:02:00,
2013-04-21 18:12:00,38.0,25.0,-100.00,SSE,160,9.0,17.0,59,0.00,,,-99.99,,2013-04-21 23:12:00,
2013-04-21 18:22:00,38.0,25.0,-100.00,SSE,160,9.0,17.0,59,0.00,,,-99.99,,2013-04-21 23:22:00,
2013-04-21 18:52:00,38.0,25.0,-100.00,SSE,165,7.0,24.0,59,0.00,,,-99.99,,2013-04-21 23:52:00,
2013-04-21 19:01:00,38.0,25.0,-100.00,SSE,165,7.0,24.0,59,0.00,,,-99.99,,2013-04-22 00:01:00,
2013-04-21 19:11:00,38.0,25.0,-100.00,SSE,165,7.0,24.0,59,0.00,,,-99.99,,2013-04-22 00:11:00,
2013-04-21 19:21:00,38.0,25.0,-100.00,SSE,165,7.0,24.0,59,0.00,,,-99.99,,2013-04-22 00:21:00,
2013-04-21 19:52:00,36.0,29.0,-100.00,SSE,160,7.0,19.0,74,0.00,,,-99.99,,2013-04-22 00:52:00,
2013-04-21 20:01:00,36.0,29.0,-100.00,SSE,160,7.0,19.0,74,0.00,,,-99.99,,2013-04-22 01:01:00,
2013-04-21 20:12:00,36.0,29.0,-100.00,SSE,160,7.0,19.0,74,0.00,,,-99.99,,2013-04-22 01:12:00,
2013-04-21 20:21:00,36.0,29.0,-100.00,SSE,160,7.0,19.0,74,0.00,,,-99.99,,2013-04-22 01:21:00,
2013-04-21 20:52:00,36.0,31.0,-100.00,SSE,165,7.0,14.0,84,0.00,,,-99.99,,2013-04-22 01:52:00,
2013-04-21 21:02:00,36.0,31.0,-100.00,SSE,165,7.0,14.0,84,0.00,,,-99.99,,2013-04-22 02:02:00,
2013-04-21 21:11:00,36.0,31.0,-100.00,SSE,165,7.0,14.0,84,0.00,,,-99.99,,2013-04-22 02:11:00,
2013-04-21 21:21:00,36.0,31.0,-100.00,SSE,165,7.0,14.0,84,0.00,,,-99.99,,2013-04-22 02:21:00,
2013-04-21 21:52:00,36.0,32.0,-100.00,South,175,6.0,13.0,85,0.00,,,-99.99,,2013-04-22 02:52:00,
2013-04-21 22:02:00,36.0,32.0,-100.00,South,175,6.0,13.0,85,0.00,,,-99.99,,2013-04-22 03:02:00,
2013-04-21 22:11:00,36.0,32.0,-100.00,South,175,6.0,13.0,85,0.00,,,-99.99,,2013-04-22 03:11:00,
2013-04-21 22:22:00,36.0,32.0,-100.00,South,175,6.0,13.0,85,0.00,,,-99.99,,2013-04-22 03:22:00,
2013-04-21 22:43:00,38.0,33.0,-100.00,SSW,195,2.0,15.0,84,0.00,,,-99.99,,2013-04-22 03:43:00,
2013-04-21 22:53:00,38.0,33.0,-100.00,SSW,200,5.0,15.0,84,0.00,,,-99.99,,2013-04-22 03:53:00,
2013-04-21 23:03:00,38.0,33.0,-100.00,SSW,200,5.0,15.0,84,0.00,,,-99.99,,2013-04-22 04:03:00,
2013-04-21 23:12:00,38.0,33.0,-100.00,SSW,200,5.0,15.0,84,0.00,,,-99.99,,2013-04-22 04:12:00,
2013-04-21 23:23:00,38.0,33.0,-100.00,SSW,200,5.0,15.0,84,0.00,,,-99.99,,2013-04-22 04:23:00,
2013-04-21 23:43:00,38.0,34.0,-100.00,SW,230,2.0,9.0,85,0.00,,,-99.99,,2013-04-22 04:43:00,
2013-04-21 23:53:00,38.0,34.0,-100.00,SW,230,2.0,9.0,85,0.00,,,-99.99,,2013-04-22 04:53:00,